• In Deutschland
  • Länderverzeichnis
  • Für 7 Tage
  • Wassertemperatur
  • Satellitenkarten
  • Wetterkarte
  • Widgets
  • user-avatar
    Anmelden

    Stündliche Wetter Rheinberg

    Heute, 19 Juli, Donnerstag

    Zeit Temperatur Niederschläge Wind Luftdruck Luftfeuchtigkeit
    00:00 +18°C° 0 mm 2 m/S 762 mmHg 66%
    01:00 +18°C° 0 mm 2 m/S 762 mmHg 67%
    02:00 +18°C° 0 mm 2 m/S 762 mmHg 68%
    03:00 +17°C° 0 mm 2 m/S 762 mmHg 69%
    04:00 +18°C° 0 mm 2 m/S 762 mmHg 66%
    05:00 +19°C° 0 mm 2 m/S 762 mmHg 62%
    06:00 +20°C° 0 mm 2 m/S 762 mmHg 59%
    07:00 +23°C° 0 mm 2 m/S 762 mmHg 53%
    08:00 +25°C° 0 mm 2 m/S 762 mmHg 48%
    09:00 +27°C° 0 mm 2 m/S 762 mmHg 43%
    10:00 +28°C° 0 mm 1 m/S 762 mmHg 40%
    11:00 +29°C° 0 mm 1 m/S 762 mmHg 37%
    12:00 +30°C° 0 mm 1 m/S 761 mmHg 33%
    13:00 +30°C° 0 mm 1 m/S 761 mmHg 33%
    14:00 +30°C° 0 mm 1 m/S 761 mmHg 33%
    15:00 +30°C° 0 mm 1 m/S 761 mmHg 33%
    16:00 +29°C° 0 mm 1 m/S 761 mmHg 35%
    17:00 +29°C° 0 mm 1 m/S 760 mmHg 38%
    18:00 +28°C° 0 mm 2 m/S 760 mmHg 40%
    19:00 +27°C° 0 mm 2 m/S 760 mmHg 45%
    20:00 +25°C° 0 mm 2 m/S 761 mmHg 49%
    21:00 +22°C° 0 mm 3 m/S 761 mmHg 54%
    22:00 +21°C° 0 mm 2 m/S 761 mmHg 57%
    23:00 +20°C° 0 mm 2 m/S 761 mmHg 60%

    Morgen, 20 Juli, Freitag

    Zeit Temperatur Niederschläge Wind Luftdruck Luftfeuchtigkeit
    00:00 +20°C° 0 mm 2 m/S 760 mmHg 64%
    01:00 +19°C° 0 mm 2 m/S 760 mmHg 65%
    02:00 +19°C° 0 mm 2 m/S 760 mmHg 67%
    03:00 +18°C° 0 mm 2 m/S 760 mmHg 68%
    04:00 +19°C° 0 mm 2 m/S 760 mmHg 67%
    05:00 +20°C° 0 mm 2 m/S 759 mmHg 65%
    06:00 +20°C° 0 mm 2 m/S 759 mmHg 64%
    07:00 +23°C° 0 mm 2 m/S 759 mmHg 57%
    08:00 +25°C° 0 mm 1 m/S 759 mmHg 51%
    09:00 +27°C° 0 mm 1 m/S 759 mmHg 45%
    10:00 +28°C° 0 mm 1 m/S 759 mmHg 41%
    11:00 +29°C° 0 mm 2 m/S 758 mmHg 37%
    12:00 +31°C° 0 mm 2 m/S 758 mmHg 33%
    13:00 +31°C° 0 mm 2 m/S 758 mmHg 33%
    14:00 +31°C° 0 mm 1 m/S 757 mmHg 32%
    15:00 +31°C° 0 mm 1 m/S 757 mmHg 32%
    16:00 +30°C° 0 mm 1 m/S 757 mmHg 36%
    17:00 +29°C° 0 mm 1 m/S 757 mmHg 39%
    18:00 +28°C° 0 mm 1 m/S 757 mmHg 42%
    19:00 +27°C° 0 mm 1 m/S 757 mmHg 47%
    20:00 +25°C° 0 mm 2 m/S 757 mmHg 51%
    21:00 +24°C° 0 mm 2 m/S 757 mmHg 56%
    22:00 +23°C° 0,1 mm 2 m/S 757 mmHg 61%
    23:00 +22°C° 0,1 mm 1 m/S 757 mmHg 66%

    übermorgen, 21 Juli, Samstag

    Zeit Temperatur Niederschläge Wind Luftdruck Luftfeuchtigkeit
    00:00 +21°C° 0,1 mm 1 m/S 757 mmHg 70%
    01:00 +21°C° 0,1 mm 1 m/S 756 mmHg 72%
    02:00 +20°C° 0,1 mm 1 m/S 756 mmHg 74%
    03:00 +20°C° 0,1 mm 1 m/S 756 mmHg 75%
    04:00 +21°C° 0 mm 1 m/S 756 mmHg 73%
    05:00 +21°C° 0 mm 1 m/S 756 mmHg 71%
    06:00 +22°C° 0 mm 1 m/S 756 mmHg 69%
    07:00 +24°C° 0 mm 1 m/S 756 mmHg 62%
    08:00 +25°C° 0 mm 1 m/S 757 mmHg 55%
    09:00 +27°C° 0 mm 1 m/S 757 mmHg 49%
    10:00 +28°C° 0 mm 1 m/S 756 mmHg 45%
    11:00 +29°C° 0 mm 2 m/S 756 mmHg 41%
    12:00 +31°C° 0 mm 2 m/S 756 mmHg 37%
    13:00 +30°C° 0 mm 2 m/S 756 mmHg 39%
    14:00 +30°C° 0 mm 2 m/S 756 mmHg 41%
    15:00 +29°C° 0 mm 2 m/S 756 mmHg 43%
    16:00 +28°C° 0 mm 2 m/S 756 mmHg 45%
    17:00 +28°C° 0 mm 3 m/S 757 mmHg 48%
    18:00 +27°C° 0 mm 3 m/S 757 mmHg 51%
    19:00 +25°C° 0,2 mm 3 m/S 757 mmHg 56%
    20:00 +24°C° 0,2 mm 3 m/S 757 mmHg 62%
    21:00 +21°C° 0,2 mm 3 m/S 758 mmHg 67%
    22:00 +20°C° 0,1 mm 3 m/S 758 mmHg 69%
    23:00 +20°C° 0,1 mm 2 m/S 758 mmHg 72%

    22 Juli, Sonntag

    Zeit Temperatur Niederschläge Wind Luftdruck Luftfeuchtigkeit
    00:00 +19°C° 0,1 mm 2 m/S 758 mmHg 74%
    01:00 +18°C° 0 mm 2 m/S 758 mmHg 75%
    02:00 +18°C° 0 mm 2 m/S 758 mmHg 76%
    03:00 +18°C° 0 mm 1 m/S 758 mmHg 77%
    04:00 +19°C° 0 mm 1 m/S 758 mmHg 74%
    05:00 +19°C° 0 mm 1 m/S 758 mmHg 71%
    06:00 +19°C° 0 mm 2 m/S 759 mmHg 67%
    07:00 +21°C° 0 mm 2 m/S 759 mmHg 60%
    08:00 +24°C° 0 mm 2 m/S 759 mmHg 53%
    09:00 +25°C° 0 mm 2 m/S 759 mmHg 46%
    10:00 +26°C° 0 mm 2 m/S 759 mmHg 44%
    11:00 +27°C° 0 mm 3 m/S 759 mmHg 43%
    12:00 +28°C° 0 mm 3 m/S 759 mmHg 41%
    13:00 +28°C° 0 mm 3 m/S 759 mmHg 41%
    14:00 +28°C° 0 mm 3 m/S 759 mmHg 42%
    15:00 +28°C° 0 mm 4 m/S 759 mmHg 42%
    16:00 +27°C° 0 mm 3 m/S 759 mmHg 44%
    17:00 +26°C° 0 mm 3 m/S 759 mmHg 46%
    18:00 +26°C° 0 mm 3 m/S 759 mmHg 48%
    19:00 +24°C° 0 mm 3 m/S 760 mmHg 55%
    20:00 +21°C° 0 mm 2 m/S 760 mmHg 61%
    21:00 +20°C° 0 mm 2 m/S 760 mmHg 67%
    22:00 +19°C° 0 mm 2 m/S 761 mmHg 72%
    23:00 +18°C° 0 mm 2 m/S 761 mmHg 77%

    23 Juli, Montag

    Zeit Temperatur Niederschläge Wind Luftdruck Luftfeuchtigkeit
    00:00 +18°C° 0 mm 1 m/S 761 mmHg 82%
    01:00 +18°C° 0 mm 1 m/S 761 mmHg 83%
    02:00 +18°C° 0 mm 1 m/S 761 mmHg 85%
    03:00 +16°C° 0 mm 1 m/S 761 mmHg 86%
    04:00 +18°C° 0 mm 1 m/S 761 mmHg 83%
    05:00 +19°C° 0 mm 1 m/S 761 mmHg 80%
    06:00 +20°C° 0 mm 1 m/S 761 mmHg 77%
    07:00 +22°C° 0 mm 1 m/S 761 mmHg 69%
    08:00 +24°C° 0 mm 1 m/S 761 mmHg 61%
    09:00 +25°C° 0 mm 1 m/S 761 mmHg 53%
    10:00 +27°C° 0 mm 1 m/S 761 mmHg 48%
    11:00 +28°C° 0 mm 1 m/S 761 mmHg 43%
    12:00 +30°C° 0 mm 1 m/S 760 mmHg 38%
    13:00 +30°C° 0 mm 1 m/S 760 mmHg 36%
    14:00 +30°C° 0 mm 1 m/S 760 mmHg 35%
    15:00 +31°C° 0 mm 1 m/S 760 mmHg 34%
    16:00 +30°C° 0 mm 1 m/S 760 mmHg 36%
    17:00 +30°C° 0 mm 1 m/S 760 mmHg 38%
    18:00 +29°C° 0 mm 1 m/S 760 mmHg 41%
    19:00 +27°C° 0 mm 1 m/S 760 mmHg 45%
    20:00 +25°C° 0 mm 1 m/S 760 mmHg 50%
    21:00 +24°C° 0 mm 2 m/S 760 mmHg 55%
    22:00 +23°C° 0 mm 1 m/S 760 mmHg 58%
    23:00 +22°C° 0 mm 1 m/S 760 mmHg 62%

    24 Juli, Dienstag

    Zeit Temperatur Niederschläge Wind Luftdruck Luftfeuchtigkeit
    00:00 +21°C° 0 mm 1 m/S 760 mmHg 65%
    01:00 +21°C° 0 mm 1 m/S 760 mmHg 67%
    02:00 +21°C° 0 mm 1 m/S 760 mmHg 68%
    03:00 +20°C° 0 mm 1 m/S 759 mmHg 69%
    04:00 +21°C° 0 mm 1 m/S 759 mmHg 66%
    05:00 +22°C° 0 mm 1 m/S 759 mmHg 63%
    06:00 +23°C° 0 mm 1 m/S 759 mmHg 61%
    07:00 +25°C° 0 mm 2 m/S 759 mmHg 54%
    08:00 +27°C° 0 mm 2 m/S 759 mmHg 48%
    09:00 +29°C° 0 mm 2 m/S 759 mmHg 41%
    10:00 +30°C° 0 mm 2 m/S 758 mmHg 38%
    11:00 +31°C° 0 mm 2 m/S 758 mmHg 36%
    12:00 +32°C° 0 mm 2 m/S 758 mmHg 33%
    13:00 +32°C° 0 mm 2 m/S 758 mmHg 33%
    14:00 +32°C° 0 mm 2 m/S 757 mmHg 33%
    15:00 +32°C° 0 mm 2 m/S 757 mmHg 33%
    16:00 +31°C° 0 mm 2 m/S 757 mmHg 36%
    17:00 +31°C° 0 mm 2 m/S 757 mmHg 39%
    18:00 +30°C° 0 mm 2 m/S 758 mmHg 42%
    19:00 +28°C° 0 mm 2 m/S 758 mmHg 46%
    20:00 +27°C° 0 mm 3 m/S 758 mmHg 50%
    21:00 +26°C° 0 mm 3 m/S 758 mmHg 54%
    22:00 +24°C° 0 mm 3 m/S 759 mmHg 59%
    23:00 +23°C° 0 mm 2 m/S 759 mmHg 65%
    Mehr zeigen